Location: Newark
(23.3970°S, 47.6010°W)
Time: 11:26:31
(UTC+00:00)

Tiros 1 despin weight - Pass Details

Date: 19 February 2020
Orbit: 593 x 642 km, 48.2° (Epoch: 06 April)

Event Time Altitude Azimuth Distance (km) Brightness Sun altitude
Rises 14:52:57 0° 320° (NW) 2,883 ? 75.8°
Reaches altitude 10° 14:55:14 10° 322° (NW) 1,991 ? 76.1°
Maximum altitude 14:59:49 76° 46° (NE) 655 ? 76.6°
Drops below altitude 10° 15:04:31 10° 132° (SE) 2,036 ? 77.0°
Sets 15:06:52 0° 133° (SE) 2,955 ? 77.2°
